Location: *
(37.9500°N, 27.3666°E)
Time: 14:43:07
(UTC+00:00)

Cosmos 2263 Rocket - Pass Details

Date: 24 October 2021
Orbit: 825 x 847 km, 71.0° (Epoch: 06 December)

Event Time Altitude Azimuth Distance (km) Brightness Sun altitude
Rises 16:52:12 0° 326° (NW) 3,367 5.8 -18.6°
Reaches altitude 10° 16:54:54 10° 316° (NW) 2,430 5.2 -19.2°
Maximum altitude 16:59:39 30° 257° (WSW) 1,444 4.1 -20.1°
Drops below altitude 10° 17:04:24 10° 198° (SSW) 2,421 4.8 -21.0°
Sets 17:07:06 0° 187° (S) 3,353 5.4 -21.6°
